Home > Weather > Río Gallegos > Past weeks

Flag for Argentina Past Weather in Río Gallegos, Santa Cruz, Argentina — Yesterday and Last 2 Weeks

Now
48 °F

Sunny.


Feels Like: 42 °F
Forecast: N/A
Wind: 15 mph from North

Location: Rio Gallegos Aerodrome

Current Time: Aug 27, 2016 at 5:45:23 PM

Latest Report: Aug 27, 2016 at 5:00 PM


Visibility: 10 mi

Pressure: 29.95 "Hg

Humidity: 66%

Dew Point: 37 °F

Location of Río GallegosLocation

Past Weather in Río Gallegos — Graph

°F

Río Gallegos Temperature Yesterday

Maximum temperature yesterday: 45 °F (at 4:00 PM)
Minimum temperature yesterday: 25 °F (at 5:00 AM)
Average temperature yesterday: 34 °F

High & Low Weather Summary for the Past Weeks

 TemperatureHumidityPressure
High52 °F (Aug 22, 4:00 PM)100% (Aug 12, 11:00 PM)30.27 "Hg (Aug 12, 11:00 PM)
Low23 °F (Aug 16, 9:00 AM)44% (Aug 22, 4:00 PM)29.36 "Hg (Aug 21, 7:00 AM)
Average35 °F77%29.74 "Hg
* Reported Aug 12 4:00 PM — Aug 27 4:00 PM, Río Gallegos, Weather by CustomWeather, © 2016

Note: Actual official high and low records may vary slightly from our data, if they occured in-between our weather recording intervals... More about our weather records

Advertising

Río Gallegos Weather History for the Previous 24 Hours

Scroll right to see more
 ConditionsComfort  
Time TempWeatherWind HumidityBarometerVisibility
4:00 PM
Sat, Aug 27
50 °FSunny.13 mph62%29.95 "Hg10 mi
3:00 PM50 °FSunny.12 mph62%29.95 "Hg10 mi
2:00 PM48 °FSunny.10 mph66%29.98 "Hg10 mi
1:00 PM46 °FSunny.8 mph66%29.98 "Hg10 mi
12:00 PM43 °FSunny.5 mph71%29.98 "Hg10 mi
11:00 AM37 °FPartly sunny.No wind81%30.01 "HgN/A
10:00 AM34 °FScattered clouds.No wind81%30.01 "HgN/A
9:00 AM30 °FScattered clouds.5 mph93%30.01 "HgN/A
8:00 AM30 °FFog.No wind86%29.98 "Hg5 mi
7:00 AM30 °FFog.No wind93%29.98 "HgN/A
6:00 AM30 °FFog.No wind100%29.95 "HgN/A
5:00 AM30 °FClear.No wind93%29.98 "Hg10 mi
4:00 AM34 °FPassing clouds.No wind87%29.95 "HgN/A
3:00 AM34 °FPassing clouds.No wind93%29.95 "HgN/A
2:00 AM36 °FPassing clouds.No wind87%29.95 "HgN/A
1:00 AM37 °FPassing clouds.No wind93%29.95 "HgN/A
12:00 AM39 °FPassing clouds.No wind93%29.95 "HgN/A
10:00 PM
Fri, Aug 26
39 °FPassing clouds.3 mph87%29.92 "HgN/A
9:00 PM37 °FPassing clouds.6 mph87%29.92 "HgN/A
8:00 PM37 °FClear.6 mph87%29.92 "Hg10 mi
7:00 PM39 °FPassing clouds.3 mph87%29.89 "HgN/A
6:00 PM41 °FPassing clouds.7 mph81%29.89 "HgN/A
5:00 PM45 °FPartly sunny.2 mph71%29.86 "HgN/A
Weather by CustomWeather, © 2016

See weather overviewHow to use our weather pages